Terminal Aerodrome Forecast
Issued by NWS

Home | Current Version | Previous Version | Text Only | Print | Product List | Glossary On
Versions: 1 2 3 4 5 6 7 8 9 10 11 12 13 14 15 16 17 18 19 20 21 22 23 24 25 26 27 28 29 30 31 32 33 34 35 36 37 38
755
FTUS45 KBOI 180139 AAA
TAFJER
TAF AMD
KJER 180139Z 1802/1824 25012KT P6SM SKC
     FM180400 23010KT P6SM SKC
     FM181300 VRB06KT P6SM SKC
     FM181900 34010KT P6SM SKC=

USA.gov is the U.S. government's official web portal to all federal, state and local government web resources and services.